Total_Precipitation_Accumulation
1.23 1.21 1.20 1.09 1.05 1.08 1.15 1.33 1.64 1.44 0.90 0.67 0.64 0.67 0.74 0.83 0.93 0.90 0.84 0.92 1.01 1.14 1.28 1.37 1.44 1.67 2.08 2.77 3.72 4.73 4.96 4.27 3.44 2.93 2.89 3.36 3.86 4.36
1.28 1.30 1.27 1.25 1.23 1.19 1.20 1.26 1.44 1.59 1.24 0.67 0.60 0.64 0.77 0.88 1.04 1.03 1.02 1.11 1.08 1.15 1.25 1.33 1.37 1.49 1.72 2.10 2.71 3.64 4.58 4.77 4.20 3.57 3.29 3.37 3.71 4.08
1.35 1.41 1.37 1.33 1.40 1.34 1.28 1.26 1.29 1.43 1.46 0.83 0.62 0.65 0.85 1.04 1.10 1.13 1.16 1.12 1.07 1.16 1.23 1.29 1.34 1.42 1.60 1.84 2.18 2.76 3.66 4.45 4.64 4.29 3.92 3.68 3.67 3.79
1.37 1.39 1.41 1.41 1.45 1.43 1.43 1.35 1.25 1.22 1.35 1.13 0.79 0.77 0.91 1.09 1.15 1.19 1.25 1.23 1.16 1.24 1.29 1.37 1.45 1.52 1.65 1.77 1.97 2.25 2.87 3.58 4.24 4.45 4.22 3.86 3.70 3.81
1.62 1.60 1.53 1.52 1.54 1.48 1.49 1.45 1.34 1.25 1.25 1.26 1.01 0.87 0.94 1.05 1.19 1.28 1.32 1.30 1.31 1.37 1.34 1.37 1.50 1.61 1.68 1.73 1.84 2.02 2.28 2.68 3.27 3.98 4.23 4.03 3.78 3.75
1.75 1.76 1.72 1.71 1.65 1.60 1.62 1.57 1.53 1.55 1.50 1.50 1.31 1.10 1.05 1.06 1.25 1.46 1.55 1.41 1.38 1.37 1.41 1.39 1.49 1.58 1.64 1.63 1.59 1.71 1.95 2.31 2.86 3.47 4.00 4.12 3.81 3.65
1.61 1.62 1.68 1.86 1.92 1.97 1.99 1.88 1.87 1.98 1.95 1.86 1.63 1.41 1.25 1.28 1.39 1.47 1.70 1.66 1.55 1.47 1.49 1.42 1.42 1.40 1.43 1.52 1.59 1.69 1.87 2.02 2.36 2.91 3.45 3.85 3.87 3.73
1.52 1.44 1.43 1.64 1.74 1.89 2.04 2.04 2.11 2.28 2.36 2.26 1.96 1.67 1.37 1.31 1.43 1.66 1.88 2.07 2.00 1.58 1.60 1.63 1.57 1.59 1.49 1.46 1.61 1.68 1.81 1.96 2.12 2.46 2.89 3.30 3.56 3.70
1.37 1.36 1.32 1.35 1.48 1.42 1.62 1.74 1.78 1.97 2.22 2.32 2.28 1.81 1.52 1.40 1.70 1.92 1.97 2.10 1.99 1.73 1.82 2.05 1.85 1.77 1.63 1.60 1.64 1.56 1.66 1.80 1.91 2.13 2.45 2.84 3.20 3.45
1.17 1.15 1.15 1.19 1.30 1.46 1.55 1.55 1.47 1.55 1.84 2.03 2.20 2.01 1.80 1.76 2.04 2.35 2.47 2.49 2.26 2.01 1.98 2.36 2.13 1.98 1.87 1.74 1.66 1.51 1.54 1.65 1.76 1.90 2.09 2.42 2.76 3.00
1.08 1.07 1.03 1.03 1.35 1.61 1.56 1.47 1.34 1.34 1.52 1.82 2.05 2.14 2.23 2.37 2.54 2.85 3.05 3.01 2.81 2.37 2.12 2.32 2.35 2.25 2.10 1.98 1.80 1.61 1.50 1.53 1.60 1.71 1.80 1.97 2.26 2.61
1.09 1.04 1.15 1.20 1.45 1.55 1.46 1.51 1.55 1.38 1.31 1.38 1.48 1.60 1.69 1.87 2.26 2.55 2.84 3.02 2.95 2.83 2.31 2.29 2.43 2.49 2.74 2.28 1.85 1.53 1.40 1.44 1.49 1.57 1.63 1.69 1.91 2.07
1.23 1.15 1.10 1.29 1.35 1.42 1.48 1.48 1.65 1.52 1.40 1.48 1.47 1.42 1.44 1.59 1.79 2.09 2.49 2.86 3.07 2.92 2.37 2.47 2.66 2.42 2.61 2.48 2.06 1.67 1.36 1.32 1.34 1.41 1.50 1.56 1.68 1.79
1.22 1.09 1.08 1.27 1.31 1.39 1.40 1.51 1.62 1.56 1.46 1.47 1.41 1.37 1.40 1.49 1.62 1.82 2.10 2.37 2.54 2.60 2.33 2.39 2.83 2.56 2.46 2.26 2.10 1.89 1.53 1.31 1.22 1.24 1.30 1.55 1.69 1.75
1.38 1.40 1.31 1.34 1.33 1.27 1.33 1.40 1.40 1.36 1.45 1.47 1.35 1.25 1.26 1.37 1.46 1.60 1.76 2.00 2.19 2.31 2.31 2.25 2.46 2.49 2.48 2.36 1.98 1.74 1.67 1.55 1.25 1.21 1.30 1.36 1.44 1.57
1.49 1.50 1.45 1.41 1.32 1.26 1.26 1.20 1.17 1.27 1.36 1.35 1.24 1.14 1.13 1.25 1.40 1.52 1.69 1.88 2.15 2.25 2.25 2.26 2.30 2.50 2.53 2.11 1.87 1.66 1.49 1.67 1.46 1.26 1.32 1.38 1.38 1.36
1.61 1.52 1.40 1.37 1.37 1.29 1.19 1.13 1.12 1.20 1.26 1.18 1.17 1.16 1.16 1.24 1.33 1.44 1.68 1.85 2.06 2.08 2.18 2.34 2.37 2.38 2.43 2.35 2.19 1.71 1.41 1.37 1.35 1.29 1.37 1.53 1.58 1.48
1.67 1.52 1.31 1.22 1.22 1.19 1.16 1.14 1.09 1.11 1.11 1.13 1.19 1.21 1.23 1.28 1.33 1.39 1.60 1.81 1.91 1.89 1.98 2.16 2.33 2.43 2.56 2.67 2.42 1.90 1.52 1.41 1.36 1.29 1.33 1.54 1.76 1.66
1.43 1.30 1.19 1.13 1.08 1.05 1.08 1.06 1.05 1.03 1.07 1.13 1.15 1.14 1.17 1.22 1.28 1.35 1.47 1.62 1.71 1.75 1.82 1.93 2.15 2.37 2.51 2.63 2.66 2.21 1.83 1.60 1.51 1.52 1.47 1.50 1.69 1.71
1.20 1.17 1.16 1.12 1.08 1.07 1.08 1.09 1.05 1.04 1.11 1.16 1.16 1.11 1.14 1.22 1.27 1.29 1.34 1.49 1.59 1.65 1.73 1.81 2.00 2.26 2.43 2.39 2.51 2.48 2.20 1.86 1.70 1.73 1.64 1.57 1.62 1.72
1.16 1.12 1.13 1.17 1.16 1.14 1.11 1.12 1.13 1.13 1.13 1.18 1.17 1.13 1.14 1.22 1.25 1.23 1.28 1.42 1.51 1.56 1.66 1.71 1.80 1.98 2.12 2.15 2.21 2.22 2.28 2.23 1.93 1.77 1.69 1.76 1.83 1.82
1.12 1.12 1.11 1.15 1.20 1.19 1.17 1.17 1.19 1.19 1.20 1.23 1.17 1.13 1.14 1.20 1.25 1.24 1.26 1.30 1.34 1.41 1.51 1.55 1.63 1.85 2.09 2.25 2.18 2.02 2.10 2.25 2.26 2.01 1.82 1.87 2.15 2.39
1.17 1.17 1.14 1.13 1.15 1.16 1.15 1.16 1.18 1.18 1.18 1.20 1.14 1.06 1.07 1.16 1.18 1.20 1.18 1.15 1.18 1.25 1.37 1.50 1.62 1.80 1.99 2.09 2.12 1.96 1.88 1.99 2.11 2.15 2.20 2.00 1.75 1.69